Torna al catalogo

DMSP 5D-2 F13 DEB

AttivoSSO
NORAD 40504·DEBRIS·🇺🇸 United States

Lanciato Mar 24, 1995 da Vandenberg Space Force Base

Loading…

Prossimi Passaggi (prossime 24 ore)

TLE

AggiornatoSource: Space-Track

Epoca: Sep 12, 2026, 11:15 UTC

1 40504U 95015CT  26255.46926530  .00001666  00000-0  78362-3 0  9996
2 40504  99.0377 264.0565 0044774 227.5381 132.2006 14.20905859591385

Traccia DMSP 5D-2 F13 DEB in tempo reale con AllMySat

Download on the App Store